Location: �mondeville
(49.4591°N, 1.3431°W)
Time: 17:20:35
(UTC+00:00)

Meteor 1-31 Rocket - Pass Details

Date: 22 October 2019
Orbit: 520 x 548 km, 97.6° (Epoch: 14 November)

Event Time Altitude Azimuth Distance (km) Brightness Sun altitude
Rises 04:42:29 0° 14° (NNE) 2,667 6.6 -19.2°
Reaches altitude 10° 04:44:37 10° 17° (NNE) 1,771 5.7 -18.9°
Maximum altitude 04:48:25 73° 102° (ESE) 551 2.9 -18.3°
Drops below altitude 10° 04:52:12 10° 188° (S) 1,752 5.3 -17.7°
Sets 04:54:17 0° 190° (S) 2,636 6.2 -17.3°
